Other Public Products
Issued by NWS Grand Forks, ND

Home | Current Version | Previous Version | Graphics & Text | Print | Product List | Glossary On
Versions: 1 2 3 4 5 6 7 8 9 10 11 12 13 14 15 16 17 18 19 20 21 22 23 24 25 26 27 28 29 30 31 32 33 34 35 36 37 38 39 40 41 42 43 44 45 46 47 48 49 50
000
FPUS83 KFGF 271631
OPUFGF
PRAIRIE TO PINES WEATHER ROUNDUP
NATIONAL WEATHER SERVICE EASTERN NORTH DAKOTA/GRAND FORKS ND
1100 AM CDT SUN MAY 27 2018

 **SATELLITE DATA USED TO AUGMENT SKY COVER AT AUTOMATED STATIONS**
 *****  WEATHER ACROSS EASTERN NORTH DAKOTA  *****

CITY           SKY/WX    TMP DP  RH WIND       PRES   REMARKS
GRAND FORKS    PTSUNNY   71  64  78 NE7       29.78S
GRND FORKS AFB PTSUNNY   71  65  82 E7        29.79F
GRND FORKS NWS   N/A     72  64  75 MISG      29.77S
BUXTON           N/A     73  67  83 SE9         N/A
DEVILS LAKE    FAIR      69  63  81 N15       29.86S
FARGO          FAIR      71  60  68 SE20G30   29.74F
WAHPETON ARPT  FAIR      70  59  68 E16G22    29.80F
$$

 *****  WEATHER ACROSS CENTRAL AND WESTERN NORTH DAKOTA  *****

CITY           SKY/WX    TMP DP  RH WIND       PRES   REMARKS
JAMESTOWN      FAIR      69  59  70 SE20G30   29.73F
BISMARCK       FAIR      73  60  63 E8        29.80R
MINOT          FAIR      75  63  66 E10       29.85S
MINOT AFB      FAIR      74  62  66 E10       29.84S
GARRISON         N/A     68  60  75 E9        29.85S
WILLISTON      FAIR      73  58  59 N7        29.90S
DICKINSON      FAIR      65  57  75 N12       29.90R
HETTINGER      FAIR      69  58  67 NW15      29.89R
$$

 *****  OTHER OBSERVATIONS NORTHEAST NORTH DAKOTA  *****

CITY           SKY/WX    TMP DP  RH WIND       PRES   REMARKS
WALHALLA       FAIR      70  72 100 N5        29.86S
LANGDON        PTSUNNY   72  70  94 E7        29.89R
CAVALIER         N/A     72  63  73 N6        29.85F
GRAFTON        FAIR      70  66  88 NW10      29.86R
CANDO          FAIR      73  64  73 NE9       29.88F
FORT TOTTEN      N/A     68  64  86 N6        29.95S
ROLLA          CLOUDY    70  64  83 SE8       29.89S
RUGBY          NOT AVBL
 ***** THE ABOVE OBSERVATIONS ARE NON NWS ARE NOT QUALITY
        CONTROLLED AND MAY MIS-REPORT RAIN FOR SNOW...
$$

 *****  OTHER OBSERVATIONS SOUTHEAST NORTH DAKOTA *****

CITY           SKY/WX    TMP DP  RH WIND       PRES   REMARKS
COOPERSTOWN    FAIR      70  61  73 E17       29.79R
VALLEY CITY    TSTM      68  63  83 SE23G33   29.77F
OAKES            N/A     73  63  68 E24G32    29.77F
GWINNER          N/A     72  64  78 E16G26    29.78F
SHEYENNE NWR     N/A     72  62  70 E14       29.95S
BUFFALO          N/A     69  58  67 W14         N/A
WYNDMERE       NOT AVBL
 ***** THE ABOVE OBSERVATIONS ARE NON NWS ARE NOT QUALITY
       CONTROLLED AND MAY MIS-REPORT RAIN FOR SNOW...
$$

  *****  WEATHER ACROSS NORTHERN MINNESOTA  *****

CITY           SKY/WX    TMP DP  RH WIND       PRES   REMARKS
FLAG ISLAND    FAIR      70  61  73 CALM      29.83S
WARROAD        FAIR      72  66  83 E5        29.83S
ROSEAU         FAIR      75  64  69 E6        29.82S
HALLOCK        FAIR      73  64  73 N5        29.84R
THF RVR FALLS  FAIR      67  62  84 E6        29.82R
HALSTAD          N/A     71  63  73 SE10        N/A
FOSSTON        FAIR      66  63  88 SE10      29.78F
BAUDETTE       NOT AVBL
WASKISH        FAIR      70  63  78 CALM      29.84F
CROOKSTON      FAIR      70  64  83 E5        29.77F
$$
  *****  WEATHER ACROSS CENTRAL AND WEST MINNESOTA  *****

CITY           SKY/WX    TMP DP  RH WIND       PRES   REMARKS
BEMIDJI        FAIR      63  60  89 S8        29.84F
PARK RAPIDS    LGT RAIN  65  60  84 NW21G35   29.98R
WADENA         LGT RAIN  63  59  88 NE8       29.91F
DETROIT LAKES  FAIR      64  61  88 SE14G21   29.82F
MOORHEAD       FAIR      72  59  64 E21G30    29.75F
FERGUS FALLS   FAIR      70  61  73 E10G21    29.78F
ELBOW LAKE     FAIR      66  60  79 NE14G20   29.86F
MORRIS MN        N/A     66  61  82 NE20G25   29.84F
STAPLES        LGT RAIN  64  57  77 N14G26    29.98R
WHEATON        FAIR      68  61  77 E13G18    29.85F
$$
  *****  WEATHER ELSEWHERE ACROSS MINNESOTA  *****

CITY           SKY/WX    TMP DP  RH WIND       PRES   REMARKS
DULUTH         FAIR      81  58  45 NW8       29.89S
INTRNTL FALLS  FAIR      75  61  61 CALM      29.85F
ELY            FAIR      79  55  44 W13       29.88S
CLOQUET        FAIR      81  55  41 N3        29.89S
BRAINERD       FAIR      73  56  54 SE8       29.84F
HIBBING        FAIR      75  60  59 W5        29.90S
ALEXANDRIA     CLOUDY    68  59  73 NE14      29.93F
SAINT CLOUD    FAIR      74  55  51 N10       29.90F
MINNEAPOLIS    CLOUDY    88  64  44 VRB3      29.87R
$$

  *****  WEATHER ACROSS SOUTH DAKOTA  *****

CITY           SKY/WX    TMP DP  RH WIND       PRES   REMARKS
SIOUX FALLS    PTSUNNY   87  60  40 S7        29.82F
BROOKINGS      FAIR      88  61  40 N9        29.85R
WATERTOWN      FAIR      78  58  49 E9        29.84F
HURON          FAIR      85  61  44 CALM      29.78R
SISSETON         N/A     71  63  75 NE13      29.85S
ABERDEEN       FAIR      85  59  41 E24G39    29.75F
MITCHELL       FAIR      88  65  46 S12       29.79R HX  90
PIERRE         FAIR      83  60  45 SW12      29.71F
MOBRIDGE       FAIR      84  62  47 E23G30    29.70F
RAPID CITY     FAIR      73  56  54 N22G32    29.86F
$$

  *****  SOME WEATHER IN NEARBY STATES *****

CITY           SKY/WX    TMP DP  RH WIND       PRES   REMARKS
GLASGOW MT     FAIR      76  56  49 N16       29.93R
GREAT FALLS MT FAIR      70  47  43 W6        30.05F
CHEYENNE WY    FAIR      66  55  67 N20G29    30.01R
SCOTTSBLUFF NE FAIR      75  59  57 NW6       29.87R
OMAHA NE       FAIR      90  64  42 W3        29.86R HX  91
DES MOINES IA  FAIR      88  73  61 S3        29.85S HX  95
DAVENPORT IA   FAIR      87  70  56 VRB3      29.89R HX  92
CHICAGO IL     FAIR      89  64  43 W7        29.86S HX  90
EAU CLAIRE WI  FAIR      86  66  51 NW5       29.86R
LA CROSSE WI   FAIR      86  71  60 CALM      29.84S HX  91
$$

  *****  SOME NATIONAL WEATHER *****

CITY           SKY/WX    TMP DP  RH WIND       PRES   REMARKS
LA GUARDIA NY  LGT RAIN  63  59  87 NE15      30.02F
RALEIGH NC     PTSUNNY   82  74  76 SW8       30.02S
ATLANTA GA     PTSUNNY   80  68  66 VRB7      29.99S
NEW ORLEANS LA PTSUNNY   83  74  74 NE10      29.86R
OKLAHOMA CITY  PTSUNNY   83  72  69 SE13      29.89F
ALBUQUERQUE NM FAIR      73  17  12 NE6       30.01S
SALT LAKE CITY LGT RAIN  57  49  74 SW3       29.96R
LOS ANGELES CA CLOUDY    63  52  67 SE5       29.98R
BOISE ID       FAIR      61  49  64 NW9       30.00S
SEATTLE WA     FAIR      60  47  61 CALM      30.26S
$$

*** WEATHER ACROSS MANITOBA...SASKATCHEWAN AND ONTARIO ***
                ***ONTARIO***

CITY           SKY/WX    TMP DP  RH WIND       PRES   REMARKS
GERALDTON      CLOUDY    57  54  88 W7        29.83R
THUNDER BAY    PTSUNNY   64  59  82 E8        29.83F
SIOUX LOOKOUT  PTSUNNY   70  59  68 NW9       29.84F
TORONTO        MOSUNNY   73  61  64 SE7       29.92S
BIG TROUT LK   CLOUDY    55  48  76 W8        29.74F
PICKLE LAKE    CLOUDY    57  55  94 W6        29.81S
DRYDEN         MOSUNNY   70  57  64 NW7       29.85F
KENORA         PTSUNNY   70  57  64 NW3       29.86F
$$
                *** MANITOBA***

CITY           SKY/WX    TMP DP  RH WIND       PRES   REMARKS
BRANDON        PTSUNNY   68  61  77 S6        29.86S
DAUPHIN        SUNNY     75  57  53 NW10G18   29.82R
ISLAND LAKE    PTSUNNY   59  54  82 SW6       29.78F
PILOT MOUND      N/A     68  61  77 E9          N/A
THE PAS        PTSUNNY   66  50  55 NW7       29.82R
THOMPSON       PTSUNNY   70  46  43 SW12      29.68F
WINNIPEG       LGT RAIN  66  63  88 SW2       29.85R
LYNN LAKE      PTSUNNY   61  45  55 W13G21    29.72R
CHURCHILL      PTSUNNY   54  45  71 NW18G26   29.51R
GILLAM         MOSUNNY   63  50  63 NW10      29.62F
$$
                ***SASKATCHEWAN***

CITY           SKY/WX    TMP DP  RH WIND       PRES   REMARKS
ESTEVAN        PTSUNNY   72  61  68 S12       29.90R
KINDERSLEY     MOSUNNY   68  37  32 NE12G18   30.02S
LLOYDMINSTER   PTSUNNY   64  37  36 NW13G20   30.03R
PRINCE ALBERT  MOSUNNY   66  46  48 NW12G20   29.96R
REGINA         PTSUNNY   70  54  56 N18       29.94R
YORKTON        PTSUNNY   68  57  68 N14       29.89R


USA.gov is the U.S. government's official web portal to all federal, state and local government web resources and services.